{"data":{"norad_id":61759,"epoch":"2026-05-25T04:36:28.329984Z","epoch_age_seconds":72647,"freshness":"FRESH","line1":"1 61759U 24199AA  26145.19199456  .00001949  00000+0  17051-3 0  9994","line2":"2 61759  97.3259 346.1873 0007013 134.2195 225.9606 14.97787846131694","mean_motion":14.97787846,"eccentricity":0.0007013,"inclination_deg":97.3259,"raan_deg":346.1873,"arg_perigee_deg":134.2195,"mean_anomaly_deg":225.9606,"bstar":0.00017051,"rev_number":13169,"period_min":96.141786959059,"perigee_km":568.85761676353,"apogee_km":578.60830957387,"semimajor_km":6951.8699631687,"source":"CELESTRAK","updated_at":"2026-05-25T13:38:02.556335Z"}}